Ord, NE

11:07 PM CDT on March 25, 2017 (GMT -0500)
Sharp

Weather History for KODX - August, 2013

Change the Weather History Date:

Wednesday, August 28, 2013

  Actual Average Record
Temperature  
Mean Temperature 78 °F 71 °F  
Max Temperature 94 °F 84 °F 98 °F (2012)
Min Temperature 61 °F 58 °F 52 °F (2004)
Degree Days  
Heating Degree Days 0 1  
Month to date heating degree days 0 1  
Since 1 June heating degree days 54 43  
Since 1 July heating degree days 7 6  
Cooling Degree Days 13 6  
Month to date cooling degree days 231 240  
Year to date cooling degree days 719 740  
Since 1 June cooling degree days 672 699  
Growing Degree Days 28 (Base 50)    
Moisture  
Dew Point 63 °F    
Average Humidity 62    
Maximum Humidity 93    
Minimum Humidity 30    
Precipitation  
Precipitation 0.00 in 0.09 in 1.56 in (1920)
Month to date precipitation 3.75 2.91  
Year to date precipitation 19.41 18.66  
Sea Level Pressure  
Sea Level Pressure 29.94 in    
Wind  
Wind Speed 6 mph (SSE)    
Max Wind Speed 20 mph    
Max Gust Speed 25 mph    
Visibility 10 miles    
Events      
T = Trace of Precipitation, MM = Missing Value Source: NWS Daily Summary

Daily Weather History Graph

Daily Weather History Graph

Search for Another Location

Airport or City:

Trip Planner

Search our weather history database for the weather conditions in past years. The results will help you decide how hot, cold, wet, or windy it might be!

Date:

Astronomy

Aug. 28, 2013 Rise Set
Actual Time 6:58 AM CDT 8:15 PM CDT
Civil Twilight 6:29 AM CDT 8:43 PM CDT
Nautical Twilight 5:54 AM CDT 9:18 PM CDT
Astronomical Twilight 5:18 AM CDT 9:54 PM CDT
Moon 12:05 AM CDT (8/28) 2:56 PM CDT (8/28)
Length of Visible Light 14h 14m
Length of Day
13h 17m
Waning Gibbous, 47% of the Moon is Illuminated
Aug 28
Waning Gibbous
Sep 5
New
Sep 12
First Quarter
Sep 19
Full
Sep 26
Last Quarter

Hourly Weather History & Observations

Time (CDT) Temp. Heat Index Dew Point Humidity Pressure Visibility Wind Dir Wind Speed Gust Speed Precip Events Conditions
12:53 AM 73.0 °F - 63.0 °F 71% 29.90 in 10.0 mi SE 3.5 mph - N/A   Clear
1:53 AM 73.0 °F - 61.0 °F 66% 29.91 in 10.0 mi SSE 4.6 mph - N/A   Clear
2:53 AM 69.1 °F - 62.1 °F 78% 29.90 in 10.0 mi Calm Calm - N/A   Clear
3:53 AM 70.0 °F - 61.0 °F 73% 29.91 in 10.0 mi SE 3.5 mph - N/A   Clear
4:53 AM 63.0 °F - 61.0 °F 93% 29.92 in 10.0 mi Calm Calm - N/A   Clear
5:53 AM 64.0 °F - 61.0 °F 90% 29.91 in 10.0 mi Calm Calm - N/A   Clear
6:53 AM 63.0 °F - 60.1 °F 90% 29.92 in 10.0 mi ESE 4.6 mph - N/A   Clear
7:53 AM 64.9 °F - 62.1 °F 90% 29.94 in 10.0 mi Calm Calm - N/A   Clear
8:53 AM 71.1 °F - 63.0 °F 75% 29.95 in 10.0 mi SSE 4.6 mph - N/A   Clear
9:53 AM 78.1 °F - 63.0 °F 60% 29.95 in 10.0 mi Calm Calm - N/A   Clear
10:53 AM 82.0 °F 83.4 °F 64.0 °F 54% 29.97 in 10.0 mi SSW 4.6 mph - N/A   Clear
11:53 AM 89.1 °F 91.0 °F 64.9 °F 45% 29.96 in 10.0 mi South 9.2 mph - N/A   Clear
12:53 PM 91.9 °F 91.5 °F 60.1 °F 34% 29.95 in 10.0 mi SSW 12.7 mph - N/A   Clear
1:53 PM 91.0 °F 89.2 °F 55.9 °F 30% 29.94 in 10.0 mi South 17.3 mph 21.9 mph N/A   Clear
2:53 PM 91.9 °F 92.9 °F 63.0 °F 38% 29.95 in 10.0 mi South 13.8 mph 19.6 mph N/A   Clear
3:53 PM 93.0 °F 91.7 °F 57.0 °F 30% 29.94 in 10.0 mi SSE 10.4 mph - N/A   Clear
4:53 PM 89.1 °F 88.0 °F 57.9 °F 35% 29.95 in 10.0 mi South 6.9 mph - N/A   Clear
5:53 PM 89.1 °F 90.0 °F 63.0 °F 42% 29.95 in 10.0 mi SSE 12.7 mph - N/A   Clear
6:53 PM 88.0 °F 89.3 °F 64.0 °F 45% 29.95 in 10.0 mi SSE 15.0 mph 19.6 mph N/A   Clear
7:53 PM 84.0 °F 86.3 °F 66.0 °F 55% 29.96 in 10.0 mi SSE 6.9 mph - N/A   Clear
8:53 PM 73.9 °F - 68.0 °F 82% 29.96 in 10.0 mi Calm Calm - N/A   Clear
9:53 PM 79.0 °F - 66.9 °F 66% 29.96 in 10.0 mi SE 6.9 mph - N/A   Clear
10:53 PM 72.0 °F - 66.9 °F 84% 29.98 in 10.0 mi Calm Calm - N/A   Clear
11:53 PM 72.0 °F - 66.9 °F 84% 29.97 in 10.0 mi ESE 4.6 mph - N/A   Clear